SUN3212 TNCC-MBPV

Flight info

Callsign SUN3212
Flight time 1h 34m
Altitude 38000
Route KARUM1K KARUM UL339 PTA UL463 JUELE BR2L GOVET L463 TOMAZ
Aircraft A20N/M-SDE2E3FGHIRWXY/LB1

Departure

Time 2026-04-27 08:38
Airport Hato International Airport (TNCC)

Arrival

Time 2026-04-27 10:13
Airport Providenciales International Airport (MBPV)
Time Latitude Longitude Altitude Speed Heading
2026-04-27 08:23 12.18557 -68.95811 28 ft 0 kts 188°
2026-04-27 08:30 12.18567 -68.95810 27 ft 2 kts 187°
2026-04-27 08:30 12.18583 -68.95807 27 ft 2 kts 191°
2026-04-27 08:30 12.18599 -68.95803 27 ft 2 kts 194°
2026-04-27 08:30 12.18615 -68.95799 27 ft 2 kts 198°
2026-04-27 08:31 12.18630 -68.95793 27 ft 2 kts 204°
2026-04-27 08:31 12.18645 -68.95785 27 ft 2 kts 218°
2026-04-27 08:31 12.18656 -68.95773 27 ft 2 kts 247°
2026-04-27 08:31 12.18659 -68.95758 27 ft 2 kts 275°
2026-04-27 08:32 12.18659 -68.95752 27 ft 0 kts 279°
2026-04-27 08:33 12.18659 -68.95753 27 ft 1 kts 279°
2026-04-27 08:33 12.18662 -68.95769 27 ft 4 kts 280°
2026-04-27 08:33 12.18668 -68.95805 27 ft 7 kts 281°
2026-04-27 08:33 12.18679 -68.95861 28 ft 10 kts 281°
2026-04-27 08:34 12.18695 -68.95938 28 ft 12 kts 282°
2026-04-27 08:34 12.18714 -68.96035 27 ft 15 kts 281°
2026-04-27 08:34 12.18737 -68.96151 27 ft 18 kts 281°
2026-04-27 08:34 12.18763 -68.96283 28 ft 20 kts 282°
2026-04-27 08:35 12.18798 -68.96428 27 ft 22 kts 284°
2026-04-27 08:35 12.18834 -68.96588 27 ft 24 kts 282°
2026-04-27 08:35 12.18872 -68.96762 26 ft 26 kts 283°
2026-04-27 08:35 12.18912 -68.96948 26 ft 28 kts 281°
2026-04-27 08:36 12.18953 -68.97144 27 ft 29 kts 282°
2026-04-27 08:36 12.18997 -68.97349 25 ft 29 kts 282°
2026-04-27 08:36 12.19037 -68.97537 25 ft 22 kts 282°
2026-04-27 08:36 12.19112 -68.97583 26 ft 9 kts
2026-04-27 08:37 12.19184 -68.97565 26 ft 12 kts 16°
2026-04-27 08:37 12.19212 -68.97495 27 ft 16 kts 104°
2026-04-27 08:37 12.19149 -68.97191 27 ft 77 kts 102°
2026-04-27 08:37 12.18994 -68.96461 28 ft 133 kts 102°
2026-04-27 08:38 12.18767 -68.95418 275 ft 154 kts 104°
2026-04-27 08:38 12.18514 -68.94302 699 ft 168 kts 102°
2026-04-27 08:38 12.18253 -68.93142 1390 ft 166 kts 100°
2026-04-27 08:38 12.18022 -68.91980 2108 ft 172 kts 100°
2026-04-27 08:39 12.17802 -68.90715 2604 ft 189 kts 99°
2026-04-27 08:39 12.17578 -68.89323 3028 ft 210 kts 92°
2026-04-27 08:39 12.17813 -68.87789 3477 ft 233 kts 69°
2026-04-27 08:39 12.18837 -68.86406 3937 ft 259 kts 40°
2026-04-27 08:40 12.20486 -68.85557 4677 ft 271 kts 21°
2026-04-27 08:40 12.22313 -68.85017 5528 ft 275 kts 17°
2026-04-27 08:40 12.24180 -68.84546 6386 ft 279 kts 16°
2026-04-27 08:40 12.26070 -68.84047 7154 ft 282 kts 17°
2026-04-27 08:41 12.27977 -68.83506 7908 ft 286 kts 18°
2026-04-27 08:41 12.29908 -68.82928 8631 ft 292 kts 19°
2026-04-27 08:41 12.31865 -68.82326 9410 ft 295 kts 19°
2026-04-27 08:41 12.33850 -68.81709 10124 ft 301 kts 19°
2026-04-27 08:42 12.35891 -68.81072 10403 ft 322 kts 19°
2026-04-27 08:42 12.38110 -68.80378 10616 ft 343 kts 19°
2026-04-27 08:42 12.40435 -68.79657 11125 ft 352 kts 19°
2026-04-27 08:42 12.42787 -68.78929 11839 ft 354 kts 19°
2026-04-27 08:43 12.45162 -68.78194 12505 ft 359 kts 19°
2026-04-27 08:43 12.47565 -68.77450 13181 ft 362 kts 18°
2026-04-27 08:43 12.49987 -68.76699 13834 ft 366 kts 19°
2026-04-27 08:43 12.52441 -68.75938 14394 ft 371 kts 18°
2026-04-27 08:44 12.54923 -68.75167 14952 ft 375 kts 18°
2026-04-27 08:44 12.57440 -68.74386 15489 ft 380 kts 18°
2026-04-27 08:44 12.59978 -68.73597 16068 ft 383 kts 18°
2026-04-27 08:44 12.62551 -68.72798 16535 ft 389 kts 18°
2026-04-27 08:45 12.65216 -68.72224 17113 ft 393 kts
2026-04-27 08:45 12.67975 -68.72183 17586 ft 399 kts 355°
2026-04-27 08:45 12.70713 -68.72656 18201 ft 400 kts 348°
2026-04-27 08:45 12.73468 -68.73224 18601 ft 406 kts 348°
2026-04-27 08:46 12.76244 -68.73785 19104 ft 407 kts 348°
2026-04-27 08:46 12.79028 -68.74344 19619 ft 409 kts 348°
2026-04-27 08:46 12.81837 -68.74908 20033 ft 413 kts 348°
2026-04-27 08:46 12.84658 -68.75476 20598 ft 413 kts 348°
2026-04-27 08:47 12.87452 -68.76038 21043 ft 417 kts 347°
2026-04-27 08:47 12.90279 -68.76608 21500 ft 419 kts 347°
2026-04-27 08:47 12.93169 -68.77191 22017 ft 420 kts 347°
2026-04-27 08:47 12.96052 -68.77772 22425 ft 424 kts 347°
2026-04-27 08:48 12.98951 -68.78357 22869 ft 426 kts 347°
2026-04-27 08:48 13.01873 -68.78947 23314 ft 428 kts 347°
2026-04-27 08:48 13.04813 -68.79541 23698 ft 431 kts 347°
2026-04-27 08:48 13.07764 -68.80138 24056 ft 433 kts 347°
2026-04-27 08:49 13.10733 -68.80738 24413 ft 436 kts 347°
2026-04-27 08:49 13.13714 -68.81342 24763 ft 438 kts 347°
2026-04-27 08:49 13.16714 -68.81948 25103 ft 440 kts 347°
2026-04-27 08:49 13.19727 -68.82558 25440 ft 443 kts 347°
2026-04-27 08:50 13.22763 -68.83173 25772 ft 445 kts 347°
2026-04-27 08:50 13.25778 -68.83783 26094 ft 447 kts 347°
2026-04-27 08:50 13.28836 -68.84402 26412 ft 450 kts 347°
2026-04-27 08:50 13.31920 -68.85027 26672 ft 454 kts 347°
2026-04-27 08:51 13.35030 -68.85657 26962 ft 456 kts 347°
2026-04-27 08:51 13.38153 -68.86290 27285 ft 458 kts 347°
2026-04-27 08:51 13.41294 -68.86926 27566 ft 461 kts 347°
2026-04-27 08:51 13.44447 -68.87565 27869 ft 463 kts 347°
2026-04-27 08:52 13.47623 -68.88209 28158 ft 465 kts 347°
2026-04-27 08:52 13.50811 -68.88856 28437 ft 468 kts 347°
2026-04-27 08:52 13.54011 -68.89505 28712 ft 470 kts 347°
2026-04-27 08:52 13.57230 -68.90159 28985 ft 472 kts 347°
2026-04-27 08:53 13.60458 -68.90815 29253 ft 474 kts 347°
2026-04-27 08:53 13.63707 -68.91474 29513 ft 476 kts 347°
2026-04-27 08:53 13.66966 -68.92137 29773 ft 478 kts 347°
2026-04-27 08:53 13.70242 -68.92803 30034 ft 481 kts 347°
2026-04-27 08:54 13.73536 -68.93472 30264 ft 483 kts 347°
2026-04-27 08:54 13.76841 -68.94144 30493 ft 485 kts 347°
2026-04-27 08:54 13.80166 -68.94821 30721 ft 487 kts 347°
2026-04-27 08:54 13.83498 -68.95499 30966 ft 489 kts 347°
2026-04-27 08:55 13.86839 -68.96179 31237 ft 489 kts 347°
2026-04-27 08:55 13.90136 -68.96850 31546 ft 489 kts 347°
2026-04-27 08:55 13.93488 -68.97532 31856 ft 489 kts 347°
2026-04-27 08:55 13.96828 -68.98212 32157 ft 489 kts 347°
2026-04-27 08:56 14.00180 -68.98895 32358 ft 492 kts 346°
2026-04-27 08:56 14.03541 -68.99580 32594 ft 493 kts 346°
2026-04-27 08:56 14.06905 -69.00266 32897 ft 492 kts 346°
2026-04-27 08:56 14.10264 -69.00951 33187 ft 492 kts 346°
2026-04-27 08:57 14.16988 -69.02323 33729 ft 492 kts 346°
2026-04-27 08:57 14.20350 -69.03009 33987 ft 492 kts 346°
2026-04-27 08:57 14.23706 -69.03694 34233 ft 491 kts 346°
2026-04-27 08:58 14.27013 -69.04369 34489 ft 490 kts 346°
2026-04-27 08:58 14.30349 -69.05051 34746 ft 488 kts 346°
2026-04-27 08:58 14.33681 -69.05731 34994 ft 487 kts 346°
2026-04-27 08:58 14.37006 -69.06410 35217 ft 487 kts 345°
2026-04-27 08:59 14.40325 -69.07089 35457 ft 486 kts 345°
2026-04-27 08:59 14.43640 -69.07767 35697 ft 485 kts 345°
2026-04-27 08:59 14.46941 -69.08443 35925 ft 484 kts 345°
2026-04-27 08:59 14.50243 -69.09119 36147 ft 483 kts 345°
2026-04-27 09:00 14.53536 -69.09793 36358 ft 482 kts 345°
2026-04-27 09:00 14.56817 -69.10465 36560 ft 481 kts 345°
2026-04-27 09:00 14.60097 -69.11137 36761 ft 480 kts 345°
2026-04-27 09:00 14.63379 -69.11810 36953 ft 479 kts 345°
2026-04-27 09:01 14.66608 -69.12472 37145 ft 479 kts 345°
2026-04-27 09:01 14.69869 -69.13139 37370 ft 477 kts 345°
2026-04-27 09:01 14.73119 -69.13806 37560 ft 476 kts 345°
2026-04-27 09:01 14.76364 -69.14472 37716 ft 475 kts 345°
2026-04-27 09:02 14.79605 -69.15137 37873 ft 475 kts 345°
2026-04-27 09:02 14.85037 -69.16253 37955 ft 474 kts 345°
2026-04-27 09:03 14.91493 -69.17580 37958 ft 473 kts 345°
2026-04-27 09:03 14.97916 -69.18900 37960 ft 474 kts 345°
2026-04-27 09:04 15.04389 -69.20232 37958 ft 475 kts 345°
2026-04-27 09:04 15.10885 -69.21569 37961 ft 475 kts 345°
2026-04-27 09:05 15.17380 -69.22906 37959 ft 475 kts 345°
2026-04-27 09:05 15.23865 -69.24242 37958 ft 475 kts 345°
2026-04-27 09:06 15.30326 -69.25574 37960 ft 475 kts 345°
2026-04-27 09:06 15.36815 -69.26913 37939 ft 476 kts 345°
2026-04-27 09:07 15.43337 -69.28261 37961 ft 480 kts 345°
2026-04-27 09:07 15.49895 -69.29615 37960 ft 479 kts 345°
2026-04-27 09:08 15.56394 -69.30958 37962 ft 479 kts 345°
2026-04-27 09:08 15.62946 -69.32313 37966 ft 479 kts 345°
2026-04-27 09:09 15.69492 -69.33668 37966 ft 480 kts 344°
2026-04-27 09:09 15.76042 -69.35024 37963 ft 480 kts 344°
2026-04-27 09:10 15.82590 -69.36382 37959 ft 480 kts 344°
2026-04-27 09:10 15.89152 -69.37744 37964 ft 480 kts 344°
2026-04-27 09:11 15.95710 -69.39104 37962 ft 480 kts 344°
2026-04-27 09:11 16.02169 -69.40631 37985 ft 477 kts 339°
2026-04-27 09:12 16.08558 -69.42539 37961 ft 478 kts 339°
2026-04-27 09:12 16.14962 -69.44435 37963 ft 478 kts 339°
2026-04-27 09:13 16.21366 -69.46335 37968 ft 479 kts 339°
2026-04-27 09:13 16.27772 -69.48239 37971 ft 479 kts 339°
2026-04-27 09:14 16.34185 -69.50146 37967 ft 479 kts 339°
2026-04-27 09:14 16.40597 -69.52053 37969 ft 478 kts 339°
2026-04-27 09:15 16.46973 -69.53950 37968 ft 474 kts 339°
2026-04-27 09:15 16.53328 -69.55845 37970 ft 475 kts 339°
2026-04-27 09:16 16.59649 -69.57731 37973 ft 475 kts 339°
2026-04-27 09:16 16.66008 -69.59629 37971 ft 475 kts 339°
2026-04-27 09:17 16.72360 -69.61525 37971 ft 475 kts 338°
2026-04-27 09:17 16.78714 -69.63426 37972 ft 475 kts 338°
2026-04-27 09:18 16.85072 -69.65329 37971 ft 475 kts 338°
2026-04-27 09:18 16.91429 -69.67234 37967 ft 475 kts 338°
2026-04-27 09:19 16.97784 -69.69138 37968 ft 475 kts 338°
2026-04-27 09:19 17.04138 -69.71044 37975 ft 475 kts 338°
2026-04-27 09:20 17.10498 -69.72953 37977 ft 475 kts 338°
2026-04-27 09:20 17.16859 -69.74864 37977 ft 476 kts 338°
2026-04-27 09:21 17.23223 -69.76777 37974 ft 476 kts 338°
2026-04-27 09:21 17.29599 -69.78694 37977 ft 476 kts 338°
2026-04-27 09:22 17.35931 -69.80600 37977 ft 476 kts 338°
2026-04-27 09:22 17.42341 -69.82530 37975 ft 476 kts 338°
2026-04-27 09:23 17.48667 -69.84438 37980 ft 476 kts 338°
2026-04-27 09:23 17.55037 -69.86360 37986 ft 476 kts 338°
2026-04-27 09:24 17.61411 -69.88283 37990 ft 476 kts 337°
2026-04-27 09:24 17.67774 -69.90206 37987 ft 475 kts 337°
2026-04-27 09:25 17.74129 -69.92126 37980 ft 473 kts 337°
2026-04-27 09:25 17.80398 -69.94022 37980 ft 471 kts 337°
2026-04-27 09:26 17.86681 -69.95991 37975 ft 471 kts 335°
2026-04-27 09:26 17.92932 -69.98057 37984 ft 471 kts 335°
2026-04-27 09:27 17.99187 -70.00113 37986 ft 471 kts 335°
2026-04-27 09:27 18.05449 -70.02160 37998 ft 471 kts 335°
2026-04-27 09:28 18.11313 -70.04075 37980 ft 468 kts 335°
2026-04-27 09:28 18.16334 -70.05717 37982 ft 468 kts 335°
2026-04-27 09:29 18.22158 -70.07624 37995 ft 468 kts 335°
2026-04-27 09:29 18.28378 -70.09662 37993 ft 468 kts 335°
2026-04-27 09:30 18.34569 -70.11691 37999 ft 468 kts 335°
2026-04-27 09:30 18.40802 -70.13735 37998 ft 469 kts 335°
2026-04-27 09:31 18.47032 -70.15775 38006 ft 469 kts 335°
2026-04-27 09:31 18.53288 -70.17761 38005 ft 470 kts 336°
2026-04-27 09:32 18.59561 -70.19745 38010 ft 469 kts 336°
2026-04-27 09:32 18.65816 -70.21734 38012 ft 469 kts 335°
2026-04-27 09:33 18.72032 -70.23713 38036 ft 469 kts 335°
2026-04-27 09:33 18.78295 -70.25709 38016 ft 470 kts 335°
2026-04-27 09:34 18.84573 -70.27713 38019 ft 472 kts 335°
2026-04-27 09:34 18.90858 -70.29720 38032 ft 472 kts 335°
2026-04-27 09:35 18.97162 -70.31733 38027 ft 473 kts 335°
2026-04-27 09:35 19.03469 -70.33750 38035 ft 473 kts 335°
2026-04-27 09:36 19.09781 -70.35768 38026 ft 473 kts 334°
2026-04-27 09:36 19.16039 -70.37771 38011 ft 472 kts 334°
2026-04-27 09:37 19.22337 -70.39792 38002 ft 472 kts 334°
2026-04-27 09:37 19.28590 -70.41798 37992 ft 472 kts 334°
2026-04-27 09:38 19.34881 -70.43817 37993 ft 472 kts 334°
2026-04-27 09:38 19.41166 -70.45836 37973 ft 470 kts 334°
2026-04-27 09:39 19.47416 -70.47843 37976 ft 468 kts 334°
2026-04-27 09:39 19.53661 -70.49855 37978 ft 469 kts 334°
2026-04-27 09:40 19.59914 -70.51870 37985 ft 469 kts 334°
2026-04-27 09:40 19.66127 -70.53873 37988 ft 469 kts 334°
2026-04-27 09:41 19.72297 -70.55973 37970 ft 459 kts 329°
2026-04-27 09:41 19.77899 -70.58949 37939 ft 444 kts 318°
2026-04-27 09:42 19.82836 -70.62770 37936 ft 437 kts 312°
2026-04-27 09:42 19.87608 -70.66723 37949 ft 437 kts 313°
2026-04-27 09:43 19.92405 -70.70694 37960 ft 437 kts 313°
2026-04-27 09:43 19.97201 -70.74675 37979 ft 437 kts 313°
2026-04-27 09:44 20.01990 -70.78655 37985 ft 437 kts 313°
2026-04-27 09:44 20.06778 -70.82639 38023 ft 437 kts 312°
2026-04-27 09:45 20.11571 -70.86630 38001 ft 437 kts 312°
2026-04-27 09:45 20.16356 -70.90617 37992 ft 435 kts 313°
2026-04-27 09:46 20.21108 -70.94578 37990 ft 434 kts 312°
2026-04-27 09:46 20.25065 -70.97883 37955 ft 435 kts 312°
2026-04-27 09:46 20.27446 -70.99872 37615 ft 436 kts 312°
2026-04-27 09:47 20.29840 -71.01874 36941 ft 440 kts 313°
2026-04-27 09:47 20.33058 -71.04568 35833 ft 446 kts 313°
2026-04-27 09:47 20.34704 -71.05943 35414 ft 444 kts 313°
2026-04-27 09:47 20.37142 -71.07979 34734 ft 444 kts 313°
2026-04-27 09:48 20.39580 -71.10017 34043 ft 445 kts 313°
2026-04-27 09:48 20.42023 -71.12062 33251 ft 446 kts 313°
2026-04-27 09:48 20.44454 -71.14097 32606 ft 444 kts 313°
2026-04-27 09:48 20.46880 -71.16131 31896 ft 443 kts 314°
2026-04-27 09:49 20.49304 -71.18164 31261 ft 441 kts 314°
2026-04-27 09:49 20.51670 -71.20146 30790 ft 435 kts 314°
2026-04-27 09:49 20.54040 -71.22134 30241 ft 431 kts 314°
2026-04-27 09:49 20.56385 -71.24102 29738 ft 426 kts 314°
2026-04-27 09:50 20.58695 -71.26040 29241 ft 419 kts 314°
2026-04-27 09:50 20.60967 -71.27948 28760 ft 413 kts 314°
2026-04-27 09:50 20.63212 -71.29835 28287 ft 407 kts 315°
2026-04-27 09:50 20.65424 -71.31695 27796 ft 402 kts 315°
2026-04-27 09:51 20.67605 -71.33530 27344 ft 397 kts 315°
2026-04-27 09:51 20.69766 -71.35348 26881 ft 392 kts 315°
2026-04-27 09:51 20.71942 -71.37188 26411 ft 409 kts 315°
2026-04-27 09:51 20.74214 -71.39115 25931 ft 422 kts 316°
2026-04-27 09:52 20.76529 -71.41069 25411 ft 426 kts 316°
2026-04-27 09:52 20.78855 -71.43026 24925 ft 424 kts 317°
2026-04-27 09:52 20.81165 -71.44968 24419 ft 420 kts 317°
2026-04-27 09:52 20.83421 -71.46865 23914 ft 416 kts 317°
2026-04-27 09:53 20.85679 -71.48767 23376 ft 412 kts 317°
2026-04-27 09:53 20.87913 -71.50650 22909 ft 404 kts 317°
2026-04-27 09:53 20.90102 -71.52496 22432 ft 398 kts 317°
2026-04-27 09:53 20.92256 -71.54314 21967 ft 392 kts 317°
2026-04-27 09:54 20.94379 -71.56107 21482 ft 386 kts 318°
2026-04-27 09:54 20.96478 -71.57882 21025 ft 381 kts 318°
2026-04-27 09:54 20.98544 -71.59628 20567 ft 376 kts 318°
2026-04-27 09:54 21.00588 -71.61357 20112 ft 372 kts 318°
2026-04-27 09:55 21.02642 -71.63017 19668 ft 369 kts 321°
2026-04-27 09:55 21.04729 -71.64610 19216 ft 366 kts 321°
2026-04-27 09:55 21.08854 -71.67733 18323 ft 360 kts 321°
2026-04-27 09:56 21.10886 -71.69287 17841 ft 357 kts 321°
2026-04-27 09:56 21.12862 -71.70805 17419 ft 352 kts 321°
2026-04-27 09:56 21.14844 -71.72333 16989 ft 348 kts 321°
2026-04-27 09:56 21.16804 -71.73845 16566 ft 346 kts 321°
2026-04-27 09:57 21.18831 -71.75415 16123 ft 372 kts 321°
2026-04-27 09:57 21.20971 -71.77073 15655 ft 385 kts 322°
2026-04-27 09:57 21.23155 -71.78760 15181 ft 388 kts 322°
2026-04-27 09:57 21.25346 -71.80451 14700 ft 386 kts 322°
2026-04-27 09:58 21.27513 -71.82123 14230 ft 381 kts 322°
2026-04-27 09:58 21.29612 -71.83830 13738 ft 375 kts 317°
2026-04-27 09:58 21.31432 -71.85784 13279 ft 367 kts 308°
2026-04-27 09:58 21.32941 -71.87957 12832 ft 359 kts 302°
2026-04-27 09:59 21.34324 -71.90164 12391 ft 353 kts 302°
2026-04-27 09:59 21.35695 -71.92330 11963 ft 348 kts 302°
2026-04-27 09:59 21.37047 -71.94461 11537 ft 343 kts 302°
2026-04-27 09:59 21.38382 -71.96566 11118 ft 339 kts 302°
2026-04-27 10:00 21.39702 -71.98650 10703 ft 335 kts 302°
2026-04-27 10:00 21.40998 -72.00697 10423 ft 326 kts 302°
2026-04-27 10:00 21.42232 -72.02647 10299 ft 313 kts 302°
2026-04-27 10:00 21.43447 -72.04568 10184 ft 301 kts 302°
2026-04-27 10:01 21.44609 -72.06407 9903 ft 295 kts 302°
2026-04-27 10:01 21.45728 -72.08180 9770 ft 288 kts 302°
2026-04-27 10:01 21.46859 -72.09974 9499 ft 293 kts 302°
2026-04-27 10:01 21.48004 -72.11791 9149 ft 293 kts 302°
2026-04-27 10:02 21.49140 -72.13594 8808 ft 290 kts 302°
2026-04-27 10:02 21.50265 -72.15377 8468 ft 286 kts 302°
2026-04-27 10:02 21.51375 -72.17138 8133 ft 283 kts 302°
2026-04-27 10:02 21.52471 -72.18878 7798 ft 280 kts 302°
2026-04-27 10:03 21.53555 -72.20598 7464 ft 277 kts 302°
2026-04-27 10:03 21.54627 -72.22300 7142 ft 274 kts 302°
2026-04-27 10:03 21.55689 -72.23988 6817 ft 271 kts 302°
2026-04-27 10:03 21.56737 -72.25656 6506 ft 269 kts 302°
2026-04-27 10:04 21.57781 -72.27317 6168 ft 267 kts 302°
2026-04-27 10:04 21.58815 -72.28961 5847 ft 264 kts 302°
2026-04-27 10:04 21.59836 -72.30585 5571 ft 260 kts 302°
2026-04-27 10:04 21.60841 -72.32182 5286 ft 256 kts 303°
2026-04-27 10:05 21.61835 -72.33761 4976 ft 253 kts 302°
2026-04-27 10:05 21.62817 -72.35325 4669 ft 251 kts 302°
2026-04-27 10:05 21.63787 -72.36872 4365 ft 249 kts 302°
2026-04-27 10:05 21.64752 -72.38411 4066 ft 246 kts 303°
2026-04-27 10:06 21.65748 -72.40002 3763 ft 273 kts 302°
2026-04-27 10:06 21.66840 -72.41746 3685 ft 284 kts 302°
2026-04-27 10:06 21.67939 -72.43496 3638 ft 279 kts 303°
2026-04-27 10:06 21.69003 -72.45158 3528 ft 267 kts 308°
2026-04-27 10:07 21.70409 -72.46336 3376 ft 251 kts 337°
2026-04-27 10:07 21.72070 -72.46634 3186 ft 238 kts
2026-04-27 10:07 21.73681 -72.46531 2927 ft 228 kts
2026-04-27 10:07 21.75213 -72.46439 2763 ft 214 kts
2026-04-27 10:08 21.76674 -72.46284 2423 ft 210 kts 18°
2026-04-27 10:08 21.77864 -72.45439 2029 ft 204 kts 57°
2026-04-27 10:08 21.78304 -72.44042 1944 ft 205 kts 93°
2026-04-27 10:08 21.78198 -72.42520 1848 ft 202 kts 97°
2026-04-27 10:09 21.78091 -72.41081 1798 ft 183 kts 96°
2026-04-27 10:09 21.78010 -72.39781 1751 ft 164 kts 95°
2026-04-27 10:09 21.77952 -72.38660 1748 ft 140 kts 96°
2026-04-27 10:09 21.77899 -72.37601 1750 ft 143 kts 96°
2026-04-27 10:10 21.77856 -72.36544 1646 ft 141 kts 95°
2026-04-27 10:10 21.77803 -72.35491 1418 ft 140 kts 95°
2026-04-27 10:10 21.77750 -72.34457 1236 ft 139 kts 95°
2026-04-27 10:10 21.77688 -72.33422 1047 ft 139 kts 94°
2026-04-27 10:11 21.77633 -72.32398 852 ft 139 kts 93°
2026-04-27 10:11 21.77580 -72.31363 641 ft 139 kts 93°
2026-04-27 10:11 21.77549 -72.30333 458 ft 137 kts 93°
2026-04-27 10:11 21.77500 -72.29295 247 ft 138 kts 94°
2026-04-27 10:12 21.77443 -72.28269 75 ft 136 kts 94°
2026-04-27 10:12 21.77395 -72.27274 14 ft 122 kts 94°
2026-04-27 10:12 21.77359 -72.26581 8 ft 64 kts 93°
2026-04-27 10:12 21.77339 -72.26155 5 ft 54 kts 93°
2026-04-27 10:13 21.77327 -72.25868 4 ft 28 kts 91°
2026-04-27 10:13 21.77321 -72.25742 2 ft 15 kts 95°
2026-04-27 10:13 21.77316 -72.25620 1 ft 17 kts 90°
2026-04-27 10:13 21.77337 -72.25540 2 ft 7 kts 129°
2026-04-27 10:14 21.77313 -72.25560 2 ft 6 kts 256°
2026-04-27 10:14 21.77314 -72.25619 1 ft 10 kts 272°
2026-04-27 10:14 21.77318 -72.25705 2 ft 13 kts 272°
2026-04-27 10:14 21.77322 -72.25808 5 ft 15 kts 272°
2026-04-27 10:15 21.77329 -72.25921 5 ft 16 kts 274°
2026-04-27 10:15 21.77335 -72.26044 5 ft 17 kts 272°
2026-04-27 10:15 21.77340 -72.26184 7 ft 20 kts 272°
2026-04-27 10:15 21.77347 -72.26336 6 ft 21 kts 274°
2026-04-27 10:16 21.77357 -72.26495 7 ft 22 kts 272°
2026-04-27 10:16 21.77365 -72.26666 7 ft 24 kts 273°
2026-04-27 10:16 21.77373 -72.26846 10 ft 25 kts 272°
2026-04-27 10:16 21.77384 -72.27026 11 ft 21 kts 275°
2026-04-27 10:17 21.77450 -72.27067 11 ft 9 kts
2026-04-27 10:17 21.77508 -72.27093 12 ft 10 kts 287°
2026-04-27 10:17 21.77514 -72.27176 12 ft 12 kts 271°
2026-04-27 10:17 21.77520 -72.27275 12 ft 14 kts 274°
2026-04-27 10:18 21.77544 -72.27321 13 ft 6 kts 15°
2026-04-27 10:18 21.77582 -72.27292 13 ft 8 kts 40°
2026-04-27 10:18 21.77593 -72.27282 12 ft 0 kts 40°